FW5354 Weather Reports


Display with metric or nautical units.
time (UTC)temp
F
wind
direction
speed
MPH
gust
MPH
rain 1hr
in
rain 24hr
in
rain mn
in
humidity
%
barometer
mb
20260902214529 99 120 0.0 0.0 0.00 0.00 0.00 46 1008.5
20260902213033 99 119 0.0 0.0 0.00 0.00 0.00 46 1008.5
20260902210030 101 131 0.0 0.0 0.00 0.00 0.00 43 1008.9
20260902204526 101 120 0.0 0.0 0.00 0.00 0.00 43 1009.0
20260902203022 101 122 0.0 0.0 0.00 0.00 0.00 45 1009.2
20260902200026 100 122 0.0 0.0 0.00 0.00 0.00 43 1009.4
20260902194520 100 117 0.0 0.0 0.00 0.00 0.00 44 1009.9
20260902193012 99 122 0.0 0.0 0.00 0.00 0.00 44 1010.1
20260902190006 98 114 0.0 0.0 0.00 0.00 0.00 49 1010.5
20260902184502 97 118 0.0 0.0 0.00 0.00 0.00 50 1010.8
20260902183108 97 120 0.0 0.0 0.00 0.00 0.00 54 1011.1
20260902181658 95 124 0.0 0.0 0.00 0.00 0.00 55 1011.4
20260902180108 95 120 0.0 0.0 0.00 0.00 0.00 56 1011.6
20260902174557 94 120 0.0 0.0 0.00 0.00 0.00 59 1012.0
20260902173056 94 120 0.0 0.0 0.00 0.00 0.00 58 1012.2
20260902171657 96 120 0.0 1.0 0.00 0.00 0.00 58 1012.5
20260902170056 96 121 0.0 0.0 0.00 0.00 0.00 58 1012.6
20260902164550 94 118 0.0 0.0 0.00 0.00 0.00 62 1012.7
20260902163046 92 122 0.0 0.0 0.00 0.00 0.00 65 1012.9
20260902161644 91 125 0.0 0.0 0.00 0.00 0.00 69 1013.0
20260902160042 88 121 0.0 0.0 0.00 0.00 0.00 72 1013.0
20260902154541 86 141 0.0 0.0 0.00 0.00 0.00 72 1013.0
20260902153041 84 134 0.0 0.0 0.00 0.00 0.00 70 1013.0
20260902151643 84 135 0.0 0.0 0.00 0.00 0.00 67 1013.0
20260902150040 83 135 0.0 0.0 0.00 0.00 0.00 66 1013.0
20260902144542 83 135 0.0 0.0 0.00 0.00 0.00 63 1013.0
20260902143042 82 137 0.0 0.0 0.00 0.00 0.00 62 1013.0
20260902141637 82 137 0.0 0.0 0.00 0.00 0.00 59 1012.9
20260902140041 81 137 0.0 0.0 0.00 0.00 0.00 56 1012.9
20260902134538 81 138 0.0 0.0 0.00 0.00 0.00 54 1012.9
20260902133044 80 137 0.0 0.0 0.00 0.00 0.00 52 1012.8
20260902131637 80 138 0.0 0.0 0.00 0.00 0.00 50 1012.5
20260902130032 0 0.0 0.0 0.00 0.00 0.00 1012.6
20260902124527 0 0.0 0.0 0.00 0.00 0.00 1012.3
20260902123022 0 0.0 0.0 0.00 0.00 0.00 1011.9
20260902121621 0 0.0 0.0 0.00 0.00 0.00 1011.2
20260902120020 0 0.0 0.0 0.00 0.00 0.00 1011.2
20260902114521 0 0.0 0.0 0.00 0.00 0.00 1011.4
20260902113009 0 0.0 0.0 0.00 0.00 0.00 1011.3
20260902111604 0 0.0 0.0 0.00 0.00 0.00 1011.2
20260902110001 0 0.0 0.0 0.00 0.00 0.00 1011.3
20260902104557 0 0.0 0.0 0.00 0.00 0.00 1011.4
20260902103052 0 0.0 0.0 0.00 0.00 0.00 1011.5
20260902101554 0 0.0 0.0 0.00 0.00 0.00 1011.3
20260902100045 0 0.0 0.0 0.00 0.00 0.00 1011.3
20260902094548 0 0.0 0.0 0.00 0.00 0.00 1011.2
20260902093036 0 0.0 0.0 0.00 0.00 0.00 1011.2
20260902091542 0 0.0 0.0 0.00 0.00 0.00 1011.4
20260902090030 0 0.0 0.0 0.00 0.00 0.00 1011.3
20260902084526 0 0.0 0.0 0.00 0.00 0.00 1011.3
20260902083022 0 0.0 0.0 0.00 0.00 0.00 1011.3
20260902081518 0 0.0 0.0 0.00 0.00 0.00 1011.4
20260902080014 0 0.0 0.0 0.00 0.00 0.00 1011.2
20260902074509 0 0.0 0.0 0.00 0.00 0.00 1011.3
20260902073006 0 0.0 0.0 0.00 0.00 0.00 1011.4
20260902071505 0 0.0 0.0 0.00 0.00 0.00 1011.5
20260902064603 0 0.0 0.0 0.00 0.00 0.00 1011.3
20260902063052 79 138 0.0 0.0 0.00 0.00 0.00 72 1011.2
20260902060052 79 138 0.0 0.0 0.00 0.00 0.00 72 1011.0
20260902054558 79 138 0.0 0.0 0.00 0.00 0.00 72 1011.2
20260902053050 79 138 0.0 0.0 0.00 0.00 0.00 73 1010.9
20260902051554 79 138 0.0 0.0 0.00 0.00 0.00 72 1011.2
20260902050053 79 138 0.0 0.0 0.00 0.00 0.00 72 1011.3
20260902044547 79 138 0.0 0.0 0.00 0.00 0.00 71 1011.4
20260902043044 79 138 0.0 0.0 0.00 0.00 0.00 72 1011.5
20260902041556 80 138 0.0 0.0 0.00 0.00 0.00 72 1011.5
20260902040044 80 138 0.0 0.0 0.00 0.00 0.00 72 1011.5
20260902034548 80 138 0.0 1.0 0.00 0.00 0.00 72 1011.6
20260902033045 80 144 0.0 0.0 0.00 0.00 0.00 73 1011.7
20260902031541 80 144 0.0 0.0 0.00 0.00 0.00 73 1011.6
20260902030039 80 144 0.0 0.0 0.00 0.00 0.00 73 1011.3
20260902024538 81 145 0.0 0.0 0.00 0.00 0.00 73 1011.2
20260902023035 81 144 0.0 0.0 0.00 0.00 0.00 73 1010.9
20260902021540 82 144 0.0 0.0 0.00 0.00 0.00 73 1010.9
20260902020033 82 144 0.0 0.0 0.00 0.00 0.00 73 1010.6
20260902014538 82 144 0.0 0.0 0.00 0.00 0.00 73 1010.2
20260902013030 82 144 0.0 0.0 0.00 0.00 0.00 73 1010.1
20260902011536 83 144 0.0 0.0 0.00 0.00 0.00 72 1010.1
20260902010047 83 144 0.0 0.0 0.00 0.00 0.00 72 1010.1
20260902004533 83 139 0.0 0.0 0.00 0.00 0.00 72 1010.1
20260902003026 84 137 0.0 0.0 0.00 0.00 0.00 72 1010.3
20260902001525 84 146 0.0 0.0 0.00 0.00 0.00 72 1010.2
20260902000043 84 121 0.0 0.0 0.00 0.00 0.00 72 1010.0
20260901234549 84 147 0.0 0.0 0.00 0.00 0.00 72 1010.1
20260901233021 84 148 0.0 0.0 0.00 0.00 0.00 71 1010.3
20260901231524 86 143 0.0 0.0 0.00 0.00 0.00 69 1010.4
20260901230015 87 145 0.0 0.0 0.00 0.00 0.00 67 1010.4
20260901224511 89 179 0.0 0.0 0.00 0.00 0.00 65 1010.5
20260901223009 91 167 0.0 0.0 0.00 0.00 0.00 56 1010.3
20260901221519 91 162 0.0 0.0 0.00 0.00 0.00 59 1010.3
20260901220007 91 165 0.0 0.0 0.00 0.00 0.00 60 1010.3